| time (UTC) | temp F | wind direction | speed MPH | gust MPH | rain 1hr in | rain 24hr in | rain mn in | humidity % | barometer mb |
| 20260905222554 | 89 | 294 | 0.0 | 4.0 | 0.00 | 0.00 | 0.00 | 27 | 1015.9 |
| 20260905222050 | 88 | 185 | 0.0 | 3.0 | 0.00 | 0.00 | 0.00 | 27 | 1015.9 |
| 20260905221546 | 87 | 140 | 2.0 | 4.0 | 0.00 | 0.00 | 0.00 | 27 | 1015.9 |
| 20260905221042 | 89 | 270 | 2.0 | 3.0 | 0.00 | 0.00 | 0.00 | 27 | 1016.0 |
| 20260905220537 | 87 | 263 | 0.0 | 3.0 | 0.00 | 0.00 | 0.00 | 27 | 1016.1 |
| 20260905220034 | 87 | 14 | 0.0 | 3.0 | 0.00 | 0.00 | 0.00 | 28 | 1016.2 |
| 20260905215532 | 88 | 237 | 0.0 | 4.0 | 0.00 | 0.00 | 0.00 | 29 | 1016.4 |
| 20260905215029 | 88 | 192 | 0.0 | 5.0 | 0.00 | 0.00 | 0.00 | 29 | 1016.2 |
| 20260905214525 | 88 | 221 | 3.0 | 4.0 | 0.00 | 0.00 | 0.00 | 29 | 1016.4 |
| 20260905214020 | 88 | 270 | 3.0 | 3.0 | 0.00 | 0.00 | 0.00 | 28 | 1016.5 |
| 20260905213515 | 88 | 348 | 0.0 | 1.0 | 0.00 | 0.00 | 0.00 | 28 | 1016.5 |
| 20260905213011 | 89 | 261 | 1.0 | 3.0 | 0.00 | 0.00 | 0.00 | 28 | 1016.7 |
| 20260905212505 | 87 | 188 | 1.0 | 4.0 | 0.00 | 0.00 | 0.00 | 30 | 1016.3 |
| 20260905212004 | 88 | 254 | 0.0 | 4.0 | 0.00 | 0.00 | 0.00 | 30 | 1016.4 |
| 20260905211500 | 86 | 99 | 0.0 | 4.0 | 0.00 | 0.00 | 0.00 | 33 | 1016.7 |
| 20260905210956 | 87 | 200 | 0.0 | 2.0 | 0.00 | 0.00 | 0.00 | 29 | 1016.6 |
| 20260905210451 | 88 | 206 | 0.0 | 2.0 | 0.00 | 0.00 | 0.00 | 29 | 1016.4 |
| 20260905205950 | 88 | 164 | 0.0 | 2.0 | 0.00 | 0.00 | 0.00 | 29 | 1016.8 |
| 20260905205445 | 89 | 154 | 2.0 | 3.0 | 0.00 | 0.00 | 0.00 | 28 | 1016.8 |
| 20260905204944 | 88 | 114 | 0.0 | 3.0 | 0.00 | 0.00 | 0.00 | 29 | 1016.5 |
| 20260905204440 | 88 | 105 | 0.0 | 1.0 | 0.00 | 0.00 | 0.00 | 32 | 1016.8 |
| 20260905203939 | 86 | 270 | 0.0 | 1.0 | 0.00 | 0.00 | 0.00 | 30 | 1016.8 |
| 20260905203435 | 86 | 263 | 0.0 | 2.0 | 0.00 | 0.00 | 0.00 | 30 | 1016.9 |
| 20260905202930 | 87 | 201 | 2.0 | 2.0 | 0.00 | 0.00 | 0.00 | 31 | 1016.9 |
| 20260905202425 | 86 | 195 | 0.0 | 3.0 | 0.00 | 0.00 | 0.00 | 31 | 1017.0 |
| 20260905201920 | 86 | 264 | 2.0 | 4.0 | 0.00 | 0.00 | 0.00 | 32 | 1017.4 |
| 20260905201415 | 87 | 5 | 0.0 | 2.0 | 0.00 | 0.00 | 0.00 | 35 | 1017.1 |
| 20260905200910 | 86 | 245 | 2.0 | 3.0 | 0.00 | 0.00 | 0.00 | 35 | 1016.9 |
| 20260905200406 | 84 | 263 | 0.0 | 3.0 | 0.00 | 0.00 | 0.00 | 41 | 1017.2 |
| 20260905195903 | 86 | 194 | 0.0 | 3.0 | 0.00 | 0.00 | 0.00 | 42 | 1017.2 |
| 20260905195359 | 86 | 74 | 2.0 | 6.0 | 0.00 | 0.00 | 0.00 | 43 | 1017.2 |
| 20260905194854 | 86 | 262 | 0.0 | 4.0 | 0.00 | 0.00 | 0.00 | 41 | 1017.4 |
| 20260905194353 | 86 | 26 | 2.0 | 2.0 | 0.00 | 0.00 | 0.00 | 39 | 1017.3 |
| 20260905193848 | 84 | 102 | 0.0 | 5.0 | 0.00 | 0.00 | 0.00 | 37 | 1017.3 |
| 20260905193343 | 84 | 206 | 0.0 | 2.0 | 0.00 | 0.00 | 0.00 | 33 | 1017.7 |
| 20260905192838 | 83 | 206 | 0.0 | 2.0 | 0.00 | 0.00 | 0.00 | 34 | 1017.7 |
| 20260905192334 | 84 | 220 | 0.0 | 2.0 | 0.00 | 0.00 | 0.00 | 33 | 1017.6 |
| 20260905191833 | 84 | 90 | 0.0 | 2.0 | 0.00 | 0.00 | 0.00 | 35 | 1017.7 |
| 20260905191332 | 84 | 15 | 0.0 | 1.0 | 0.00 | 0.00 | 0.00 | 37 | 1017.7 |
| 20260905190830 | 85 | 200 | 0.0 | 4.0 | 0.00 | 0.00 | 0.00 | 34 | 1017.8 |
| 20260905190325 | 83 | 78 | 2.0 | 2.0 | 0.00 | 0.00 | 0.00 | 37 | 1017.9 |
| 20260905185824 | 84 | 78 | 2.0 | 3.0 | 0.00 | 0.00 | 0.00 | 36 | 1017.9 |
| 20260905185319 | 82 | 81 | 0.0 | 1.0 | 0.00 | 0.00 | 0.00 | 36 | 1018.1 |
| 20260905184818 | 82 | 209 | 1.0 | 3.0 | 0.00 | 0.00 | 0.00 | 35 | 1018.2 |
| 20260905184317 | 83 | 120 | 0.0 | 1.0 | 0.00 | 0.00 | 0.00 | 40 | 1018.0 |
| 20260905183816 | 83 | 103 | 0.0 | 2.0 | 0.00 | 0.00 | 0.00 | 39 | 1018.2 |
| 20260905183312 | 80 | 90 | 0.0 | 2.0 | 0.00 | 0.00 | 0.00 | 39 | 1018.5 |
| 20260905182806 | 80 | 243 | 0.0 | 2.0 | 0.00 | 0.00 | 0.00 | 42 | 1018.2 |
| 20260905182306 | 80 | 251 | 0.0 | 2.0 | 0.00 | 0.00 | 0.00 | 39 | 1018.3 |
| 20260905181801 | 81 | 120 | 0.0 | 2.0 | 0.00 | 0.00 | 0.00 | 45 | 1018.2 |
| 20260905181300 | 80 | 99 | 0.0 | 0.0 | 0.00 | 0.00 | 0.00 | 44 | 1018.4 |
| 20260905180754 | 81 | 145 | 0.0 | 2.0 | 0.00 | 0.00 | 0.00 | 46 | 1018.4 |
| 20260905180250 | 79 | 203 | 0.0 | 0.0 | 0.00 | 0.00 | 0.00 | 52 | 1018.3 |
| 20260905175744 | 78 | 98 | 0.0 | 2.0 | 0.00 | 0.00 | 0.00 | 56 | 1018.3 |
| 20260905175239 | 76 | 270 | 2.0 | 2.0 | 0.00 | 0.00 | 0.00 | 56 | 1018.2 |
| 20260905174734 | 76 | 7 | 0.0 | 2.0 | 0.00 | 0.00 | 0.00 | 59 | 1018.5 |
| 20260905174230 | 77 | 355 | 0.0 | 2.0 | 0.00 | 0.00 | 0.00 | 58 | 1018.4 |
| 20260905173726 | 77 | 254 | 0.0 | 1.0 | 0.00 | 0.00 | 0.00 | 60 | 1018.3 |
| 20260905173221 | 76 | 237 | 0.0 | 2.0 | 0.00 | 0.00 | 0.00 | 61 | 1018.4 |
| 20260905172715 | 75 | 117 | 0.0 | 1.0 | 0.00 | 0.00 | 0.00 | 62 | 1018.3 |
| 20260905172209 | 76 | 99 | 0.0 | 0.0 | 0.00 | 0.00 | 0.00 | 62 | 1018.1 |
| 20260905171705 | 74 | 270 | 0.0 | 1.0 | 0.00 | 0.00 | 0.00 | 64 | 1018.3 |
| 20260905171201 | 75 | 208 | 0.0 | 3.0 | 0.00 | 0.00 | 0.00 | 65 | 1018.6 |
| 20260905170658 | 75 | 120 | 0.0 | 1.0 | 0.00 | 0.00 | 0.00 | 66 | 1018.4 |
| 20260905170157 | 74 | 214 | 0.0 | 3.0 | 0.00 | 0.00 | 0.00 | 67 | 1018.4 |
| 20260905165652 | 72 | 246 | 0.0 | 1.0 | 0.00 | 0.00 | 0.00 | 68 | 1018.4 |
| 20260905165147 | 75 | 83 | 0.0 | 1.0 | 0.00 | 0.00 | 0.00 | 68 | 1018.4 |
| 20260905164642 | 74 | 90 | 0.0 | 0.0 | 0.00 | 0.00 | 0.00 | 71 | 1018.5 |
| 20260905164141 | 73 | 7 | 0.0 | 2.0 | 0.00 | 0.00 | 0.00 | 71 | 1018.5 |
| 20260905163638 | 73 | 165 | 0.0 | 1.0 | 0.00 | 0.00 | 0.00 | 74 | 1018.2 |
| 20260905163134 | 72 | 234 | 1.0 | 1.0 | 0.00 | 0.00 | 0.00 | 73 | 1018.2 |
| 20260905162630 | 72 | 278 | 0.0 | 1.0 | 0.00 | 0.00 | 0.00 | 73 | 1018.3 |
| 20260905162129 | 72 | 270 | 0.0 | 0.0 | 0.00 | 0.00 | 0.00 | 74 | 1018.1 |
| 20260905161629 | 72 | 151 | 0.0 | 0.0 | 0.00 | 0.00 | 0.00 | 77 | 1018.3 |
| 20260905161127 | 71 | 248 | 0.0 | 2.0 | 0.00 | 0.00 | 0.00 | 79 | 1018.2 |
| 20260905160621 | 71 | 214 | 0.0 | 3.0 | 0.00 | 0.00 | 0.00 | 80 | 1018.3 |
| 20260905160115 | 69 | 264 | 0.0 | 2.0 | 0.00 | 0.00 | 0.00 | 84 | 1018.2 |
| 20260905155609 | 69 | 320 | 0.0 | 2.0 | 0.00 | 0.00 | 0.00 | 85 | 1018.0 |
| 20260905155108 | 69 | 300 | 0.0 | 2.0 | 0.00 | 0.00 | 0.00 | 85 | 1018.2 |
| 20260905154608 | 69 | 261 | 0.0 | 1.0 | 0.00 | 0.00 | 0.00 | 87 | 1018.1 |
| 20260905154104 | 69 | 270 | 0.0 | 2.0 | 0.00 | 0.00 | 0.00 | 87 | 1018.2 |
| 20260905153559 | 69 | 279 | 0.0 | 2.0 | 0.00 | 0.00 | 0.00 | 89 | 1018.0 |
| 20260905153054 | 69 | 243 | 0.0 | 1.0 | 0.00 | 0.00 | 0.00 | 89 | 1017.9 |
| 20260905152549 | 68 | 270 | 0.0 | 2.0 | 0.00 | 0.00 | 0.00 | 90 | 1018.1 |
| 20260905152044 | 68 | 255 | 0.0 | 0.0 | 0.00 | 0.00 | 0.00 | 92 | 1018.2 |
| 20260905151539 | 67 | 6 | 0.0 | 0.0 | 0.00 | 0.00 | 0.00 | 92 | 1018.0 |
| 20260905151034 | 67 | 6 | 0.0 | 0.0 | 0.00 | 0.00 | 0.00 | 93 | 1017.9 |
| 20260905150524 | 66 | 6 | 0.0 | 1.0 | 0.00 | 0.00 | 0.00 | 94 | 1018.0 |
| 20260905150021 | 66 | 270 | 0.0 | 0.0 | 0.00 | 0.00 | 0.00 | 94 | 1018.0 |
| 20260905145514 | 65 | 270 | 0.0 | 0.0 | 0.00 | 0.00 | 0.00 | 94 | 1017.8 |
| 20260905145009 | 64 | 270 | 0.0 | 1.0 | 0.00 | 0.00 | 0.00 | 95 | 1017.9 |
| 20260905144504 | 64 | 279 | 0.0 | 0.0 | 0.00 | 0.00 | 0.00 | 96 | 1017.8 |
| 20260905144003 | 64 | 279 | 0.0 | 0.0 | 0.00 | 0.00 | 0.00 | 96 | 1017.8 |
| 20260905143501 | 64 | 279 | 0.0 | 0.0 | 0.00 | 0.00 | 0.00 | 97 | 1017.7 |
| 20260905142956 | 63 | 337 | 0.0 | 0.0 | 0.00 | 0.00 | 0.00 | 97 | 1017.9 |
| 20260905142456 | 63 | 337 | 0.0 | 0.0 | 0.00 | 0.00 | 0.00 | 97 | 1017.9 |
| 20260905141951 | 63 | 337 | 0.0 | 0.0 | 0.00 | 0.00 | 0.00 | 97 | 1017.5 |
| 20260905141446 | 62 | 337 | 0.0 | 0.0 | 0.00 | 0.00 | 0.00 | 97 | 1017.6 |
| 20260905140943 | 62 | 337 | 0.0 | 0.0 | 0.00 | 0.00 | 0.00 | 97 | 1017.5 |
| 20260905140437 | 61 | 337 | 0.0 | 0.0 | 0.00 | 0.00 | 0.00 | 96 | 1017.5 |
| 20260905135935 | 61 | 337 | 0.0 | 0.0 | 0.00 | 0.00 | 0.00 | 96 | 1017.5 |
| 20260905135431 | 61 | 337 | 0.0 | 0.0 | 0.00 | 0.00 | 0.00 | 96 | 1017.5 |
| 20260905134921 | 61 | 337 | 0.0 | 0.0 | 0.00 | 0.00 | 0.00 | 96 | 1017.4 |
| 20260905134420 | 61 | 337 | 0.0 | 0.0 | 0.00 | 0.00 | 0.00 | 96 | 1017.4 |
| 20260905133914 | 61 | 337 | 0.0 | 0.0 | 0.00 | 0.00 | 0.00 | 96 | 1017.3 |
| 20260905133409 | 62 | 337 | 0.0 | 0.0 | 0.00 | 0.00 | 0.00 | 96 | 1017.2 |
| 20260905132909 | 62 | 337 | 0.0 | 0.0 | 0.00 | 0.00 | 0.00 | 96 | 1017.2 |
| 20260905132404 | 61 | 337 | 0.0 | 0.0 | 0.00 | 0.00 | 0.00 | 96 | 1017.3 |
| 20260905131859 | 61 | 337 | 0.0 | 0.0 | 0.00 | 0.00 | 0.00 | 96 | 1017.2 |
| 20260905131355 | 61 | 337 | 0.0 | 0.0 | 0.00 | 0.00 | 0.00 | 96 | 1017.3 |
| 20260905130849 | 62 | 337 | 0.0 | 0.0 | 0.00 | 0.00 | 0.00 | 96 | 1017.0 |
| 20260905130348 | 62 | 337 | 0.0 | 0.0 | 0.00 | 0.00 | 0.00 | 96 | 1016.9 |
| 20260905125843 | 62 | 337 | 0.0 | 0.0 | 0.00 | 0.00 | 0.00 | 96 | 1017.0 |
| 20260905125338 | 62 | 337 | 0.0 | 0.0 | 0.00 | 0.00 | 0.00 | 95 | 1016.9 |
| 20260905124834 | 62 | 337 | 0.0 | 0.0 | 0.00 | 0.00 | 0.00 | 95 | 1016.8 |
| 20260905124331 | 62 | 337 | 0.0 | 0.0 | 0.00 | 0.00 | 0.00 | 95 | 1016.9 |
| 20260905123830 | 62 | 337 | 0.0 | 0.0 | 0.00 | 0.00 | 0.00 | 95 | 1017.0 |
| 20260905123327 | 62 | 337 | 0.0 | 0.0 | 0.00 | 0.00 | 0.00 | 95 | 1016.9 |
| 20260905122827 | 62 | 337 | 0.0 | 0.0 | 0.00 | 0.00 | 0.00 | 95 | 1017.1 |
| 20260905122326 | 62 | 337 | 0.0 | 0.0 | 0.00 | 0.00 | 0.00 | 95 | 1017.2 |
| 20260905121822 | 62 | 337 | 0.0 | 0.0 | 0.00 | 0.00 | 0.00 | 95 | 1017.1 |
| 20260905121319 | 62 | 337 | 0.0 | 0.0 | 0.00 | 0.00 | 0.00 | 95 | 1017.0 |
| 20260905120817 | 63 | 337 | 0.0 | 0.0 | 0.00 | 0.00 | 0.00 | 95 | 1017.1 |
| 20260905120312 | 63 | 337 | 0.0 | 0.0 | 0.00 | 0.00 | 0.00 | 95 | 1017.0 |
| 20260905115806 | 63 | 337 | 0.0 | 1.0 | 0.00 | 0.00 | 0.00 | 95 | 1017.2 |
| 20260905115306 | 63 | 261 | 0.0 | 0.0 | 0.00 | 0.00 | 0.00 | 95 | 1016.9 |
| 20260905114800 | 63 | 270 | 0.0 | 0.0 | 0.00 | 0.00 | 0.00 | 95 | 1017.0 |
| 20260905114259 | 63 | 270 | 0.0 | 0.0 | 0.00 | 0.00 | 0.00 | 95 | 1016.9 |
| 20260905113759 | 63 | 270 | 0.0 | 0.0 | 0.00 | 0.00 | 0.00 | 95 | 1017.1 |
| 20260905113255 | 63 | 270 | 0.0 | 0.0 | 0.00 | 0.00 | 0.00 | 94 | 1017.0 |
| 20260905112749 | 64 | 270 | 0.0 | 0.0 | 0.00 | 0.00 | 0.00 | 95 | 1017.3 |
| 20260905112243 | 64 | 270 | 0.0 | 0.0 | 0.00 | 0.00 | 0.00 | 95 | 1017.2 |
| 20260905111739 | 64 | 270 | 0.0 | 0.0 | 0.00 | 0.00 | 0.00 | 95 | 1017.2 |
| 20260905111233 | 64 | 270 | 0.0 | 0.0 | 0.00 | 0.00 | 0.00 | 94 | 1017.1 |
| 20260905110732 | 64 | 270 | 0.0 | 0.0 | 0.00 | 0.00 | 0.00 | 94 | 1017.2 |
| 20260905110226 | 64 | 270 | 0.0 | 0.0 | 0.00 | 0.00 | 0.00 | 94 | 1017.2 |
| 20260905105722 | 64 | 270 | 0.0 | 0.0 | 0.00 | 0.00 | 0.00 | 94 | 1017.2 |
| 20260905105221 | 64 | 270 | 0.0 | 0.0 | 0.00 | 0.00 | 0.00 | 94 | 1017.2 |
| 20260905104715 | 64 | 270 | 0.0 | 0.0 | 0.00 | 0.00 | 0.00 | 94 | 1017.0 |
| 20260905104212 | 64 | 270 | 0.0 | 0.0 | 0.00 | 0.00 | 0.00 | 94 | 1017.2 |
| 20260905103707 | 64 | 270 | 0.0 | 0.0 | 0.00 | 0.00 | 0.00 | 94 | 1017.1 |
| 20260905103203 | 64 | 270 | 0.0 | 0.0 | 0.00 | 0.00 | 0.00 | 94 | 1017.3 |
| 20260905102658 | 65 | 270 | 0.0 | 0.0 | 0.00 | 0.00 | 0.00 | 94 | 1017.3 |
| 20260905102154 | 65 | 270 | 0.0 | 0.0 | 0.00 | 0.00 | 0.00 | 94 | 1017.2 |
| 20260905101653 | 65 | 270 | 0.0 | 0.0 | 0.00 | 0.00 | 0.00 | 94 | 1017.4 |
| 20260905101151 | 65 | 270 | 0.0 | 0.0 | 0.00 | 0.00 | 0.00 | 93 | 1017.4 |
| 20260905100648 | 65 | 270 | 0.0 | 0.0 | 0.00 | 0.00 | 0.00 | 93 | 1017.4 |
| 20260905100142 | 65 | 270 | 0.0 | 0.0 | 0.00 | 0.00 | 0.00 | 93 | 1017.4 |
| 20260905095636 | 65 | 270 | 0.0 | 0.0 | 0.00 | 0.00 | 0.00 | 93 | 1017.3 |
| 20260905095131 | 66 | 270 | 0.0 | 0.0 | 0.00 | 0.00 | 0.00 | 93 | 1017.4 |
| 20260905094627 | 66 | 270 | 0.0 | 0.0 | 0.00 | 0.00 | 0.00 | 93 | 1017.3 |
| 20260905094126 | 66 | 270 | 0.0 | 0.0 | 0.00 | 0.00 | 0.00 | 93 | 1017.4 |
| 20260905093620 | 66 | 261 | 0.0 | 0.0 | 0.00 | 0.00 | 0.00 | 93 | 1017.4 |
| 20260905093116 | 66 | 261 | 0.0 | 0.0 | 0.00 | 0.00 | 0.00 | 93 | 1017.4 |
| 20260905092611 | 66 | 261 | 0.0 | 0.0 | 0.00 | 0.00 | 0.00 | 93 | 1017.0 |
| 20260905092107 | 65 | 261 | 0.0 | 0.0 | 0.00 | 0.00 | 0.00 | 93 | 1017.2 |
| 20260905091606 | 65 | 261 | 0.0 | 0.0 | 0.00 | 0.00 | 0.00 | 93 | 1017.4 |
| 20260905091101 | 65 | 261 | 0.0 | 0.0 | 0.00 | 0.00 | 0.00 | 93 | 1017.3 |
| 20260905090600 | 66 | 261 | 0.0 | 0.0 | 0.00 | 0.00 | 0.00 | 93 | 1017.3 |
| 20260905090056 | 66 | 261 | 0.0 | 0.0 | 0.00 | 0.00 | 0.00 | 93 | 1017.3 |
| 20260905085554 | 66 | 270 | 0.0 | 0.0 | 0.00 | 0.00 | 0.00 | 93 | 1017.2 |
| 20260905085049 | 66 | 261 | 0.0 | 0.0 | 0.00 | 0.00 | 0.00 | 92 | 1017.6 |
| 20260905084544 | 67 | 261 | 0.0 | 1.0 | 0.00 | 0.00 | 0.00 | 92 | 1017.3 |
| 20260905084039 | 66 | 261 | 0.0 | 0.0 | 0.00 | 0.00 | 0.00 | 93 | 1017.4 |
| 20260905083533 | 66 | 261 | 0.0 | 0.0 | 0.00 | 0.00 | 0.00 | 92 | 1017.4 |
| 20260905083030 | 67 | 261 | 0.0 | 0.0 | 0.00 | 0.00 | 0.00 | 92 | 1017.6 |
| 20260905082525 | 67 | 261 | 0.0 | 0.0 | 0.00 | 0.00 | 0.00 | 92 | 1017.4 |
| 20260905082021 | 67 | 261 | 0.0 | 0.0 | 0.00 | 0.00 | 0.00 | 92 | 1017.6 |
| 20260905081515 | 67 | 261 | 0.0 | 0.0 | 0.00 | 0.00 | 0.00 | 92 | 1017.7 |
| 20260905081014 | 67 | 261 | 0.0 | 0.0 | 0.00 | 0.00 | 0.00 | 92 | 1017.5 |
| 20260905080509 | 67 | 261 | 0.0 | 0.0 | 0.00 | 0.00 | 0.00 | 92 | 1017.7 |
| 20260905080004 | 67 | 261 | 0.0 | 0.0 | 0.00 | 0.00 | 0.00 | 91 | 1017.7 |
| 20260905075457 | 67 | 261 | 0.0 | 0.0 | 0.00 | 0.00 | 0.00 | 91 | 1017.7 |
| 20260905074956 | 68 | 261 | 0.0 | 0.0 | 0.00 | 0.00 | 0.00 | 91 | 1017.6 |
| 20260905074452 | 68 | 261 | 0.0 | 0.0 | 0.00 | 0.00 | 0.00 | 91 | 1017.6 |
| 20260905073948 | 68 | 261 | 0.0 | 0.0 | 0.00 | 0.00 | 0.00 | 91 | 1017.7 |
| 20260905073448 | 68 | 261 | 0.0 | 0.0 | 0.00 | 0.00 | 0.00 | 91 | 1017.6 |
| 20260905072937 | 68 | 261 | 0.0 | 0.0 | 0.00 | 0.00 | 0.00 | 91 | 1017.7 |
| 20260905072432 | 68 | 261 | 0.0 | 0.0 | 0.00 | 0.00 | 0.00 | 91 | 1017.8 |
| 20260905071928 | 68 | 261 | 0.0 | 0.0 | 0.00 | 0.00 | 0.00 | 91 | 1017.6 |
| 20260905071425 | 68 | 261 | 0.0 | 0.0 | 0.00 | 0.00 | 0.00 | 91 | 1017.3 |
| 20260905070924 | 68 | 261 | 0.0 | 0.0 | 0.00 | 0.00 | 0.00 | 90 | 1017.5 |
| 20260905070421 | 68 | 261 | 0.0 | 0.0 | 0.00 | 0.00 | 0.00 | 90 | 1017.7 |
| 20260905065915 | 68 | 261 | 0.0 | 0.0 | 0.00 | 0.00 | 0.00 | 90 | 1017.4 |
| 20260905065413 | 69 | 261 | 0.0 | 0.0 | 0.00 | 0.00 | 0.00 | 89 | 1017.5 |
| 20260905064908 | 69 | 261 | 0.0 | 0.0 | 0.00 | 0.00 | 0.00 | 89 | 1017.4 |
| 20260905064403 | 69 | 294 | 0.0 | 0.0 | 0.00 | 0.00 | 0.00 | 89 | 1017.5 |
| 20260905063902 | 69 | 291 | 0.0 | 0.0 | 0.00 | 0.00 | 0.00 | 89 | 1017.5 |
| 20260905063358 | 69 | 286 | 0.0 | 0.0 | 0.00 | 0.00 | 0.00 | 90 | 1017.6 |
| 20260905062854 | 69 | 286 | 0.0 | 0.0 | 0.00 | 0.00 | 0.00 | 89 | 1017.6 |
| 20260905062353 | 69 | 286 | 0.0 | 0.0 | 0.00 | 0.00 | 0.00 | 89 | 1017.3 |
| 20260905061848 | 69 | 286 | 0.0 | 0.0 | 0.00 | 0.00 | 0.00 | 89 | 1017.5 |
| 20260905061343 | 69 | 286 | 0.0 | 0.0 | 0.00 | 0.00 | 0.00 | 88 | 1017.5 |
| 20260905060837 | 70 | 286 | 0.0 | 0.0 | 0.00 | 0.00 | 0.00 | 88 | 1017.2 |
| 20260905060334 | 69 | 286 | 0.0 | 0.0 | 0.00 | 0.00 | 0.00 | 88 | 1017.2 |
| 20260905055833 | 70 | 286 | 0.0 | 0.0 | 0.00 | 0.00 | 0.00 | 88 | 1017.5 |
| 20260905055328 | 70 | 300 | 0.0 | 2.0 | 0.00 | 0.00 | 0.00 | 87 | 1017.2 |
| 20260905054828 | 70 | 262 | 0.0 | 0.0 | 0.00 | 0.00 | 0.00 | 87 | 1017.6 |
| 20260905054325 | 70 | 270 | 0.0 | 1.0 | 0.00 | 0.00 | 0.00 | 87 | 1017.3 |
| 20260905053824 | 70 | 270 | 0.0 | 0.0 | 0.00 | 0.00 | 0.00 | 86 | 1017.1 |
| 20260905053319 | 70 | 270 | 0.0 | 1.0 | 0.00 | 0.00 | 0.00 | 86 | 1017.4 |
| 20260905052813 | 70 | 270 | 0.0 | 2.0 | 0.00 | 0.00 | 0.00 | 86 | 1017.2 |
| 20260905052308 | 70 | 270 | 0.0 | 2.0 | 0.00 | 0.00 | 0.00 | 85 | 1017.3 |
| 20260905051807 | 70 | 270 | 0.0 | 0.0 | 0.00 | 0.00 | 0.00 | 85 | 1017.2 |
| 20260905051304 | 70 | 270 | 0.0 | 0.0 | 0.00 | 0.00 | 0.00 | 84 | 1017.0 |
| 20260905050800 | 70 | 8 | 0.0 | 0.0 | 0.00 | 0.00 | 0.00 | 84 | 1017.2 |
| 20260905050256 | 71 | 261 | 0.0 | 2.0 | 0.00 | 0.00 | 0.00 | 83 | 1017.2 |
| 20260905045751 | 71 | 285 | 0.0 | 1.0 | 0.00 | 0.00 | 0.00 | 83 | 1017.6 |
| 20260905045247 | 71 | 276 | 0.0 | 2.0 | 0.00 | 0.00 | 0.00 | 83 | 1017.3 |
| 20260905044742 | 71 | 331 | 0.0 | 0.0 | 0.00 | 0.00 | 0.00 | 83 | 1017.3 |
| 20260905044237 | 71 | 331 | 0.0 | 0.0 | 0.00 | 0.00 | 0.00 | 83 | 1017.0 |
| 20260905043735 | 71 | 246 | 1.0 | 1.0 | 0.00 | 0.00 | 0.00 | 84 | 1017.0 |
| 20260905043235 | 71 | 261 | 0.0 | 3.0 | 0.00 | 0.00 | 0.00 | 83 | 1017.1 |
| 20260905042730 | 71 | 246 | 1.0 | 1.0 | 0.00 | 0.00 | 0.00 | 83 | 1017.0 |
| 20260905042229 | 71 | 257 | 0.0 | 2.0 | 0.00 | 0.00 | 0.00 | 83 | 1017.1 |
| 20260905041725 | 71 | 261 | 0.0 | 2.0 | 0.00 | 0.00 | 0.00 | 83 | 1016.8 |
| 20260905041220 | 71 | 270 | 0.0 | 1.0 | 0.00 | 0.00 | 0.00 | 83 | 1017.0 |
| 20260905040715 | 71 | 257 | 0.0 | 1.0 | 0.00 | 0.00 | 0.00 | 83 | 1016.9 |
| 20260905040214 | 71 | 257 | 0.0 | 3.0 | 0.00 | 0.00 | 0.00 | 83 | 1016.5 |
| 20260905035709 | 71 | 283 | 0.0 | 2.0 | 0.00 | 0.00 | 0.00 | 82 | 1016.5 |
| 20260905035206 | 72 | 340 | 0.0 | 1.0 | 0.00 | 0.00 | 0.00 | 82 | 1016.5 |
| 20260905034702 | 72 | 261 | 0.0 | 0.0 | 0.00 | 0.00 | 0.00 | 82 | 1016.7 |
| 20260905034201 | 72 | 270 | 0.0 | 2.0 | 0.00 | 0.00 | 0.00 | 82 | 1016.6 |
| 20260905033700 | 72 | 270 | 1.0 | 3.0 | 0.00 | 0.00 | 0.00 | 81 | 1016.4 |
| 20260905033155 | 72 | 270 | 0.0 | 2.0 | 0.00 | 0.00 | 0.00 | 81 | 1016.4 |
| 20260905032649 | 72 | 270 | 0.0 | 3.0 | 0.00 | 0.00 | 0.00 | 81 | 1016.2 |
| 20260905032144 | 72 | 276 | 0.0 | 2.0 | 0.00 | 0.00 | 0.00 | 80 | 1016.4 |
| 20260905031640 | 72 | 286 | 0.0 | 3.0 | 0.00 | 0.00 | 0.00 | 80 | 1016.3 |
| 20260905031135 | 73 | 270 | 0.0 | 1.0 | 0.00 | 0.00 | 0.00 | 79 | 1016.3 |
| 20260905030630 | 72 | 270 | 0.0 | 0.0 | 0.00 | 0.00 | 0.00 | 80 | 1016.2 |
| 20260905030126 | 73 | 270 | 0.0 | 1.0 | 0.00 | 0.00 | 0.00 | 79 | 1015.8 |
| 20260905025620 | 73 | 216 | 0.0 | 2.0 | 0.00 | 0.00 | 0.00 | 78 | 1015.9 |
| 20260905025116 | 73 | 270 | 0.0 | 1.0 | 0.00 | 0.00 | 0.00 | 78 | 1016.1 |
| 20260905024612 | 73 | 254 | 1.0 | 1.0 | 0.00 | 0.00 | 0.00 | 78 | 1016.0 |
| 20260905024106 | 73 | 270 | 0.0 | 0.0 | 0.00 | 0.00 | 0.00 | 77 | 1015.9 |
| 20260905023601 | 74 | 270 | 0.0 | 1.0 | 0.00 | 0.00 | 0.00 | 76 | 1015.9 |
| 20260905023056 | 74 | 229 | 0.0 | 0.0 | 0.00 | 0.00 | 0.00 | 75 | 1016.0 |
| 20260905022555 | 75 | 261 | 0.0 | 1.0 | 0.00 | 0.00 | 0.00 | 73 | 1016.0 |
| 20260905022051 | 75 | 346 | 0.0 | 2.0 | 0.00 | 0.00 | 0.00 | 74 | 1016.1 |
| 20260905021550 | 76 | 7 | 0.0 | 2.0 | 0.00 | 0.00 | 0.00 | 71 | 1016.0 |
| 20260905021046 | 76 | 261 | 0.0 | 0.0 | 0.00 | 0.00 | 0.00 | 70 | 1016.1 |
| 20260905020545 | 76 | 234 | 0.0 | 2.0 | 0.00 | 0.00 | 0.00 | 69 | 1016.0 |
| 20260905020041 | 77 | 90 | 0.0 | 0.0 | 0.00 | 0.00 | 0.00 | 66 | 1016.0 |
| 20260905015538 | 77 | 337 | 0.0 | 0.0 | 0.00 | 0.00 | 0.00 | 66 | 1016.0 |
| 20260905015034 | 77 | 337 | 0.0 | 1.0 | 0.00 | 0.00 | 0.00 | 66 | 1016.0 |
| 20260905014528 | 78 | 120 | 0.0 | 1.0 | 0.00 | 0.00 | 0.00 | 65 | 1015.9 |
| 20260905014024 | 78 | 243 | 0.0 | 2.0 | 0.00 | 0.00 | 0.00 | 64 | 1016.0 |
| 20260905013520 | 79 | 215 | 0.0 | 2.0 | 0.00 | 0.00 | 0.00 | 61 | 1015.8 |
| 20260905013015 | 80 | 255 | 0.0 | 2.0 | 0.00 | 0.00 | 0.00 | 61 | 1016.1 |
| 20260905012510 | 80 | 209 | 0.0 | 2.0 | 0.00 | 0.00 | 0.00 | 60 | 1016.1 |
| 20260905012007 | 80 | 180 | 0.0 | 2.0 | 0.00 | 0.00 | 0.00 | 61 | 1015.9 |
| 20260905011503 | 80 | 109 | 0.0 | 2.0 | 0.00 | 0.00 | 0.00 | 59 | 1016.2 |
| 20260905010958 | 80 | 203 | 0.0 | 2.0 | 0.00 | 0.00 | 0.00 | 58 | 1016.1 |
| 20260905010457 | 80 | 206 | 2.0 | 4.0 | 0.00 | 0.00 | 0.00 | 60 | 1016.1 |
| 20260905005954 | 80 | 229 | 4.0 | 4.0 | 0.00 | 0.00 | 0.00 | 58 | 1016.0 |
| 20260905005449 | 80 | 240 | 0.0 | 3.0 | 0.00 | 0.00 | 0.00 | 57 | 1016.2 |
| 20260905004944 | 80 | 186 | 0.0 | 2.0 | 0.00 | 0.00 | 0.00 | 56 | 1016.2 |
| 20260905004439 | 79 | 270 | 0.0 | 2.0 | 0.00 | 0.00 | 0.00 | 55 | 1016.3 |
| 20260905003934 | 80 | 203 | 2.0 | 3.0 | 0.00 | 0.00 | 0.00 | 55 | 1016.2 |
| 20260905003430 | 80 | 270 | 1.0 | 2.0 | 0.00 | 0.00 | 0.00 | 57 | 1016.3 |
| 20260905002925 | 80 | 257 | 0.0 | 2.0 | 0.00 | 0.00 | 0.00 | 55 | 1016.4 |
| 20260905002420 | 80 | 234 | 0.0 | 5.0 | 0.00 | 0.00 | 0.00 | 56 | 1016.4 |
| 20260905001919 | 78 | 180 | 0.0 | 4.0 | 0.00 | 0.00 | 0.00 | 59 | 1016.2 |
| 20260905001415 | 79 | 0 | 0.0 | 2.0 | 0.00 | 0.00 | 0.00 | 58 | 1016.2 |
| 20260905000909 | 79 | 270 | 2.0 | 4.0 | 0.00 | 0.00 | 0.00 | 57 | 1016.3 |
| 20260905000405 | 79 | 0 | 1.0 | 3.0 | 0.00 | 0.00 | 0.00 | 57 | 1016.1 |
| 20260904235900 | 79 | 249 | 0.0 | 4.0 | 0.00 | 0.00 | 0.00 | 57 | 1016.3 |
| 20260904235355 | 78 | 280 | 0.0 | 3.0 | 0.00 | 0.00 | 0.00 | 57 | 1016.2 |
| 20260904234850 | 79 | 209 | 2.0 | 5.0 | 0.00 | 0.00 | 0.00 | 57 | 1016.4 |
| 20260904234345 | 80 | 266 | 2.0 | 3.0 | 0.00 | 0.00 | 0.00 | 56 | 1016.3 |
| 20260904233841 | 80 | 225 | 2.0 | 3.0 | 0.00 | 0.00 | 0.00 | 55 | 1016.4 |
| 20260904233336 | 79 | 211 | 3.0 | 3.0 | 0.00 | 0.00 | 0.00 | 56 | 1016.3 |
| 20260904232833 | 80 | 83 | 0.0 | 3.0 | 0.00 | 0.00 | 0.00 | 55 | 1016.2 |
| 20260904232329 | 79 | 297 | 0.0 | 3.0 | 0.00 | 0.00 | 0.00 | 55 | 1016.4 |
| 20260904231824 | 79 | 105 | 0.0 | 2.0 | 0.00 | 0.00 | 0.00 | 55 | 1016.2 |
| 20260904231319 | 79 | 250 | 0.0 | 4.0 | 0.00 | 0.00 | 0.00 | 55 | 1016.2 |
| 20260904230815 | 79 | 270 | 0.0 | 6.0 | 0.00 | 0.00 | 0.00 | 58 | 1016.3 |
| 20260904230313 | 79 | 236 | 3.0 | 7.0 | 0.00 | 0.00 | 0.00 | 58 | 1016.3 |
| 20260904225808 | 80 | 247 | 2.0 | 4.0 | 0.00 | 0.00 | 0.00 | 57 | 1016.3 |
| 20260904225307 | 80 | 266 | 0.0 | 5.0 | 0.00 | 0.00 | 0.00 | 58 | 1016.5 |
| 20260904224806 | 80 | 161 | 4.0 | 4.0 | 0.00 | 0.00 | 0.00 | 56 | 1016.5 |
| 20260904224302 | 79 | 212 | 0.0 | 3.0 | 0.00 | 0.00 | 0.00 | 58 | 1016.4 |
| 20260904223801 | 79 | 292 | 0.0 | 5.0 | 0.00 | 0.00 | 0.00 | 59 | 1016.3 |
| 20260904223255 | 83 | 218 | 3.0 | 4.0 | 0.00 | 0.00 | 0.00 | 53 | 1016.5 |